Flag for United Kingdom Weather past 2 weeks in St. Peter Port, Guernsey, United Kingdom

Now
55 °F

Scattered showers. Passing clouds.


Feels Like: 49 °F
Forecast: 54 / 60 °F
Wind: 30 mph from Northwest

Location: Guernsey Airport

Current Time: Oct 21, 2014 at 12:25:32 PM

Latest Report: Oct 21, 2014 at 11:50 AM


Visibility: N/A

Pressure: 29.98 "Hg

Humidity: 72%

Dew point: 46 °F

Location of St. Peter PortLocation

Historic Weather in St. Peter Port — Graph

°F

St. Peter Port temperature yesterday

Maximum temperature yesterday: 63 °F (at 1:20 PM)
Minimum temperature yesterday: 55 °F (at 7:50 AM)
Average temperature yesterday: 58 °F

Past Weeks' High & Low Weather Summary

 TemperatureHumidityPressure
High66 °F (Oct 18, 12:50 PM)100% (Oct 6, 11:20 AM)30.15 "Hg (Oct 6, 11:20 AM)
Low50 °F (Oct 7, 5:20 AM)63% (Oct 6, 4:50 PM)29.42 "Hg (Oct 8, 8:50 AM)
Average58 °F88%29.74 "Hg
* Reported Oct 6 11:20 AM — Oct 21 11:20 AM, St. Peter Port, Weather by CustomWeather, © 2014

Note: Actual official high and low records may vary slightly from our data, if they occured in-between our weather recording intervals... More about our weather records

Advertising

St. Peter Port weather history for previous 24 hours

 ConditionsComfort  
Time TempWeatherWind HumidityBarometerVisibility
11:20 AM
Oct 21
55 °FScattered showers. Partly sunny.29 mph72%29.95 "HgN/A
10:50 AM55 °FScattered clouds.30 mph82%29.92 "HgN/A
10:20 AM54 °FScattered showers. Broken clouds.25 mph88%29.92 "HgN/A
9:50 AM57 °FScattered showers. Scattered clouds.36 mph82%29.89 "HgN/A
9:20 AM57 °FScattered clouds.30 mph82%29.86 "HgN/A
8:50 AM57 °FPartly sunny.31 mph88%29.83 "HgN/A
8:20 AM57 °FScattered showers. Partly cloudy.29 mph94%29.83 "HgN/A
7:50 AM57 °FPartly cloudy.32 mph100%29.80 "Hg2 mi
7:20 AM57 °FLight rain. Passing clouds.32 mph100%29.80 "HgN/A
6:50 AM57 °FLight rain. Partly cloudy.31 mph100%29.80 "HgN/A
6:20 AM57 °FLight rain. Partly cloudy.32 mph100%29.80 "HgN/A
5:50 AM57 °FPartly cloudy.33 mph94%29.83 "HgN/A
5:20 AM57 °FPassing clouds.30 mph94%29.86 "HgN/A
4:50 AM57 °FLight rain. Partly cloudy.32 mph94%29.86 "HgN/A
4:20 AM57 °FLight rain. Passing clouds.32 mph94%29.86 "HgN/A
3:50 AM57 °FLight rain. Passing clouds.30 mph94%29.89 "HgN/A
8:50 PM
Oct 20
57 °FPassing clouds.16 mph88%30.07 "HgN/A
8:20 PM57 °FPassing clouds.16 mph82%30.07 "HgN/A
7:50 PM57 °FPassing clouds.16 mph88%30.07 "HgN/A
7:20 PM57 °FPassing clouds.17 mph82%30.07 "HgN/A
6:50 PM57 °FBroken clouds.16 mph88%30.07 "HgN/A
6:20 PM57 °FPassing clouds.15 mph82%30.07 "HgN/A
5:50 PM57 °FPassing clouds.16 mph82%30.07 "HgN/A
5:20 PM57 °FPassing clouds.15 mph88%30.07 "HgN/A
4:50 PM59 °FPassing clouds.16 mph82%30.07 "HgN/A
4:20 PM59 °FScattered clouds.17 mph82%30.07 "HgN/A
3:50 PM59 °FPassing clouds.16 mph82%30.07 "HgN/A
3:20 PM61 °FPassing clouds.16 mph77%30.09 "HgN/A
2:50 PM59 °FPassing clouds.15 mph82%30.07 "HgN/A
2:20 PM59 °FPassing clouds.16 mph82%30.09 "HgN/A
1:50 PM59 °FPassing clouds.16 mph82%30.12 "HgN/A
1:20 PM63 °FPassing clouds.16 mph77%30.12 "HgN/A
12:50 PM61 °FPassing clouds.17 mph83%30.12 "HgN/A
12:20 PM61 °FPassing clouds.14 mph83%30.15 "HgN/A
Weather by CustomWeather, © 2014

See weather overviewHow to use our weather pages